Lapse_Rate
5.9 5.6 5.9 6.0 6.1 6.3 6.3 6.4 6.5 6.7 6.8 6.9 7.0 7.0 7.1 7.0 6.9 6.8 6.8 6.6 6.6 6.5 6.4 6.4 6.3 6.3 6.3 6.4 6.6 6.6 6.6 6.8 6.7 6.7 6.6 6.6 6.5 6.4 6.4 6.4 6.4 6.3 6.3 6.2 6.1 6.0 5.9
6.1 6.0 5.8 5.9 6.0 6.3 6.4 6.4 6.5 6.6 6.7 6.8 6.9 7.0 7.1 7.2 7.1 6.9 6.8 6.7 6.6 6.6 6.5 6.6 6.5 6.6 6.6 6.5 6.6 6.6 6.6 6.7 6.7 6.7 6.7 6.6 6.5 6.5 6.3 6.2 6.1 6.2 6.2 6.1 6.0 5.9 5.7
6.1 6.1 6.2 6.1 6.1 6.2 6.3 6.5 6.7 6.7 6.7 6.9 7.0 7.0 7.1 7.1 7.1 7.0 6.9 6.8 6.8 6.7 6.7 6.8 6.8 6.7 6.7 6.6 6.6 6.7 6.6 6.7 6.7 6.7 6.7 6.6 6.4 6.3 6.3 6.1 6.0 6.0 5.9 5.8 5.8 5.8 5.7
5.7 6.0 6.2 6.4 6.5 6.4 6.2 6.4 6.4 6.7 6.9 7.0 7.0 7.1 7.2 7.2 7.2 7.1 7.1 6.9 6.9 6.8 6.8 6.9 6.8 6.8 6.8 6.7 6.8 6.8 6.7 6.7 6.7 6.7 6.6 6.6 6.4 6.3 6.2 6.1 6.0 5.8 5.7 5.7 5.8 5.8 5.7
5.4 5.6 5.7 5.9 6.1 6.4 6.7 6.4 6.5 6.4 6.7 7.0 7.0 7.1 7.1 7.2 7.3 7.3 7.2 7.0 6.9 6.8 6.9 6.9 7.0 6.9 7.0 6.9 6.8 6.8 6.8 6.8 6.7 6.6 6.5 6.4 6.3 6.2 6.1 5.9 5.7 5.8 5.8 5.9 5.9 5.8 5.6
5.5 5.4 5.4 5.5 5.7 6.0 6.2 6.4 6.8 6.8 6.6 6.5 6.8 7.2 7.4 7.4 7.3 7.3 7.3 7.2 7.1 6.9 6.8 6.9 7.0 7.2 7.0 6.9 6.7 6.6 6.6 6.5 6.4 6.3 6.3 6.2 6.1 6.0 6.1 6.0 6.0 6.0 6.0 6.0 6.0 6.0 5.9
5.3 5.4 5.6 5.6 5.5 5.5 5.7 6.1 6.2 6.3 6.8 6.8 6.6 6.7 7.1 7.4 7.4 7.2 7.2 7.2 7.1 7.1 7.1 7.2 7.2 7.3 7.1 6.9 6.8 6.6 6.4 6.3 6.2 6.2 6.1 6.0 5.9 6.3 6.1 5.9 5.8 5.9 6.0 5.9 5.9 5.7 5.5
4.8 5.1 5.3 5.3 5.4 5.6 5.7 5.6 6.0 6.0 6.1 6.4 6.6 6.5 6.5 7.0 7.3 7.2 7.1 7.1 7.0 7.0 7.2 7.3 7.4 7.4 7.3 7.2 6.9 6.7 6.3 6.1 6.1 6.0 5.9 5.8 6.1 5.9 5.9 5.9 5.8 5.7 5.8 5.8 5.6 5.6 5.5
4.8 5.1 5.1 5.2 5.3 5.6 5.7 5.7 5.8 5.8 5.9 6.1 6.3 6.4 6.3 6.2 7.0 7.2 7.1 7.3 7.2 6.8 6.9 7.5 7.5 7.6 7.4 7.1 6.7 6.6 6.2 5.8 5.7 5.6 5.7 5.8 5.9 6.0 5.9 5.9 5.8 5.7 5.8 5.7 5.4 5.4 5.3
5.1 5.0 5.1 5.2 5.1 5.3 5.5 5.6 5.8 6.0 6.0 5.9 6.1 6.3 6.2 6.2 6.0 6.8 6.8 7.2 7.3 6.8 6.5 7.1 7.4 7.5 7.2 6.8 6.3 6.4 6.0 5.6 5.4 5.4 5.5 5.4 5.5 5.7 5.8 5.7 5.6 5.5 5.6 5.6 5.5 5.2 5.0
4.7 4.6 5.0 4.6 4.8 5.1 5.3 5.4 5.5 5.6 5.9 6.1 6.3 6.1 6.2 6.0 5.9 6.1 6.6 6.7 7.0 6.8 4.2 6.8 6.8 6.9 6.7 6.4 6.2 6.3 5.9 5.5 5.4 5.4 5.4 5.6 5.6 5.7 5.7 5.6 5.5 5.5 5.7 5.6 5.4 5.1 4.6
4.9 4.7 4.6 4.5 4.6 4.9 4.9 5.4 5.7 5.5 5.6 5.9 6.2 6.3 6.1 6.0 5.9 5.8 5.9 6.3 6.4 6.5 6.0 6.9 7.0 7.1 6.7 6.3 6.2 6.1 5.9 5.7 5.5 5.4 5.4 5.5 5.6 5.6 5.5 5.5 5.4 5.4 5.4 5.3 5.1 4.8 3.4
5.3 5.2 4.7 4.7 4.8 4.8 4.9 5.0 5.2 5.7 5.8 5.6 5.8 6.0 6.3 6.1 5.9 5.7 5.7 5.6 5.6 5.9 6.7 6.8 6.9 6.8 6.6 6.4 6.2 6.2 6.1 6.1 5.9 5.6 5.8 5.8 5.7 5.8 5.7 5.6 5.5 5.5 5.4 5.2 3.7 3.0 3.2
5.0 4.9 5.0 5.1 5.0 5.2 5.2 4.8 4.8 5.3 5.4 5.4 5.6 5.8 5.9 5.9 5.9 5.8 5.5 5.1 4.8 5.8 6.8 7.3 6.7 6.7 6.8 6.7 6.6 6.4 6.4 6.4 6.5 6.3 6.1 6.0 6.0 6.3 6.1 5.9 5.9 5.8 5.3 5.7 4.6 3.2 3.5
4.9 5.0 5.0 5.1 5.1 5.1 4.9 4.9 5.0 4.7 5.2 5.3 5.5 5.6 5.5 5.5 5.6 5.6 5.2 4.2 5.1 6.0 6.4 6.9 7.1 6.2 6.5 6.9 6.6 6.6 6.4 6.8 6.9 6.8 6.4 6.3 6.0 6.3 6.3 6.0 5.7 5.4 5.1 5.9 5.2 4.1 3.0
4.4 4.5 4.7 4.8 4.9 4.9 5.1 4.9 4.9 4.9 4.7 5.1 5.3 5.5 5.5 5.5 5.4 5.2 4.8 4.4 4.8 5.7 6.3 6.5 6.6 6.7 6.6 6.6 6.2 6.3 6.5 6.8 7.1 7.1 6.9 6.4 6.1 6.0 6.0 5.8 5.6 5.4 5.5 5.2 5.2 4.0 3.3
4.2 4.0 4.0 4.2 4.4 4.7 4.7 5.0 4.9 4.8 4.6 4.7 4.9 5.4 5.4 5.5 5.2 5.3 4.4 4.3 5.4 6.0 5.9 6.1 6.3 6.1 6.5 6.7 6.5 6.2 5.9 6.6 7.0 7.1 7.0 6.6 6.3 5.6 5.6 5.7 6.2 5.7 5.1 5.4 5.7 5.1 3.2
3.8 3.7 3.8 3.9 3.9 4.2 4.5 4.7 5.0 5.2 4.8 4.9 5.6 5.4 5.2 5.2 5.2 5.1 4.8 5.1 5.2 5.9 6.0 5.9 5.8 6.1 6.0 6.2 6.3 6.3 6.2 6.5 6.5 6.7 6.7 6.6 5.8 5.4 6.1 5.8 5.8 5.7 5.3 5.7 5.8 4.9 4.6
3.0 3.1 3.3 3.5 3.6 3.8 4.0 4.4 4.8 5.0 5.4 5.1 5.1 5.3 5.4 5.4 5.1 5.2 5.2 5.2 5.2 5.2 5.1 4.9 5.5 5.8 6.0 6.0 5.8 5.9 6.3 6.5 6.5 6.7 6.6 6.5 5.5 5.2 4.7 4.9 5.3 5.3 5.5 5.7 5.6 5.5 4.7
2.8 2.7 2.8 3.1 3.3 3.6 4.1 4.4 4.7 5.2 5.6 5.4 5.8 5.5 5.7 5.7 5.1 5.3 5.2 5.3 5.1 5.2 4.8 3.8 4.3 4.7 5.4 5.6 5.9 5.6 5.6 5.9 6.3 6.5 6.5 6.2 5.9 5.8 5.6 6.4 6.3 5.5 5.8 5.8 5.4 4.8 4.9
2.8 2.7 2.7 3.0 3.3 4.0 4.8 5.4 5.7 6.2 6.4 6.3 6.8 5.8 5.6 6.0 6.0 5.7 5.3 5.2 5.2 5.0 5.2 4.8 3.7 4.5 4.1 4.6 5.1 5.4 5.6 5.7 5.8 5.9 6.1 5.8 5.5 5.5 5.6 5.7 5.7 5.5 5.3 5.6 5.4 5.6 5.1
2.4 2.7 3.0 3.6 4.6 5.2 5.5 6.1 6.6 6.9 7.2 7.1 7.1 6.6 6.2 5.5 5.4 5.6 5.8 5.1 5.0 5.1 4.8 4.9 5.0 5.1 4.9 4.3 4.2 4.3 4.9 5.1 5.3 5.3 5.5 5.0 4.9 4.7 4.6 4.9 4.8 4.6 4.7 4.4 4.5 4.9 4.8
3.3 3.8 4.5 4.9 5.4 6.0 6.4 6.9 7.2 7.3 7.4 7.5 7.8 7.5 7.2 6.5 5.6 5.1 5.7 6.0 5.2 4.9 5.1 5.0 4.8 4.6 4.7 4.7 4.7 4.5 4.3 3.9 4.3 4.1 4.1 4.1 4.0 3.5 3.2 3.5 3.6 3.5 4.3 4.9 5.1 5.3 5.5
4.1 4.7 5.3 5.7 5.9 6.4 6.8 7.0 7.2 7.2 7.5 7.8 7.9 7.3 7.0 6.6 6.2 5.7 5.0 5.5 5.8 5.3 4.8 4.8 4.8 4.5 4.5 4.4 4.2 4.1 4.1 4.0 3.9 4.1 4.1 3.9 3.8 3.2 3.1 2.5 2.9 4.9 4.9 4.9 5.3 5.6 5.7
5.1 5.3 5.6 6.0 6.2 6.5 6.6 6.9 7.1 7.1 7.5 8.0 7.9 7.4 6.9 6.7 6.7 6.5 6.0 5.6 5.6 5.7 5.3 4.9 4.8 4.6 4.6 4.4 4.1 4.0 4.0 3.9 3.8 3.8 3.7 3.8 3.7 3.2 3.3 2.6 4.2 4.6 4.6 5.3 5.3 5.6 5.5
5.6 5.7 5.9 6.2 6.4 6.4 6.5 6.7 7.1 7.3 7.7 8.1 8.0 7.7 7.3 7.2 7.4 6.9 6.3 6.2 5.4 5.7 5.7 5.3 5.0 4.9 4.7 4.4 4.2 4.2 4.4 4.1 4.0 3.8 4.0 3.7 3.5 3.4 3.1 3.2 3.3 4.4 4.8 5.0 4.9 4.9 5.5
6.0 6.3 6.6 6.7 6.6 6.7 6.8 6.7 6.6 7.3 7.7 8.1 8.1 7.8 7.5 7.0 7.2 6.8 6.6 6.0 5.5 5.4 5.5 5.5 5.3 5.4 4.9 4.7 4.3 4.2 4.4 4.4 4.5 4.4 4.5 3.7 3.3 3.5 3.6 3.7 4.1 4.5 4.6 4.7 4.4 4.7 4.7
6.6 6.7 7.0 7.3 7.3 7.3 7.2 7.1 7.2 7.4 7.5 7.9 8.0 7.8 7.5 7.4 6.9 6.9 6.5 6.0 6.0 5.6 5.3 5.3 5.3 5.5 5.2 4.9 4.6 4.6 4.5 4.5 4.5 4.6 4.6 4.6 4.0 3.6 3.5 3.5 3.6 4.6 4.5 4.3 4.2 4.0 4.0
7.1 7.3 7.5 7.5 7.5 7.5 7.5 7.8 8.0 7.9 7.3 7.4 7.9 7.8 7.5 7.2 7.3 7.3 6.8 6.4 6.2 5.8 5.6 5.4 5.4 5.6 5.7 5.4 5.3 5.2 4.9 4.8 4.8 4.6 4.6 4.4 4.4 4.4 4.4 4.2 4.5 4.4 4.1 3.9 3.8 3.5 3.8
Wind_Speed
8 8 8 9 10 12 12 12 12 12 14 16 17 17 15 14 13 12 12 12 11 9 9 8 9 12 2 3 3 6 13 12 5 3 4 3 3 2 4 2 2 4 2 4 5 9 7
9 10 11 11 10 10 12 14 14 14 12 13 14 15 16 16 14 13 12 11 10 8 7 8 9 9 1 1 1 8 9 5 5 4 3 6 2 2 5 3 4 3 6 5 2 4 4
9 11 12 12 13 13 11 12 13 14 14 13 14 15 16 17 17 16 14 11 9 8 7 7 7 2 1 4 2 8 7 1 3 2 2 2 1 3 2 4 5 4 4 2 2 4 4
7 9 11 12 14 15 14 15 12 13 16 17 14 14 16 18 19 18 16 14 11 7 6 4 5 1 3 1 2 3 5 1 5 2 2 1 2 6 4 4 6 4 4 2 2 5 1
10 8 9 10 12 15 16 16 17 15 13 16 19 17 14 16 19 21 20 19 9 4 5 4 1 1 5 2 2 3 1 1 3 2 3 3 5 4 4 5 4 5 3 4 2 5 4
11 12 12 10 8 10 14 16 18 18 18 17 16 20 20 17 16 20 24 11 4 3 2 2 1 3 1 1 2 2 2 2 4 2 3 6 5 4 3 3 5 6 4 4 4 6 4
13 12 12 12 12 10 8 12 15 18 20 19 20 19 21 20 19 16 10 3 4 3 3 5 2 2 1 0 1 2 2 1 2 7 3 3 4 6 10 7 2 5 4 3 3 4 4
15 15 14 15 13 12 11 12 11 14 16 19 21 21 22 22 19 10 2 3 2 1 6 2 1 2 1 2 1 2 1 3 2 4 4 5 6 5 4 5 3 3 2 3 2 3 4
17 17 16 16 16 15 14 11 12 12 14 15 19 23 24 25 21 4 2 3 2 2 1 4 3 3 2 4 3 4 2 3 3 5 5 6 2 5 4 4 5 3 4 4 3 2 2
18 19 19 18 16 16 16 15 14 12 12 14 15 18 22 32 4 2 2 2 1 2 4 4 2 2 2 3 3 0 0 2 1 8 7 4 1 4 3 3 5 2 2 2 4 3 3
12 14 20 20 19 18 18 17 15 15 13 13 13 15 16 12 6 1 1 1 4 3 4 1 2 0 1 4 4 1 1 1 5 5 5 4 5 4 3 3 5 4 3 4 2 3 2
15 15 15 19 21 19 19 18 17 16 15 13 12 12 14 5 3 4 1 0 2 6 7 3 4 5 3 2 2 2 2 3 2 4 2 1 0 1 3 2 2 7 5 6 4 2 2
16 16 16 15 16 19 21 19 19 19 17 13 11 11 8 1 3 4 4 3 4 5 2 3 4 4 4 6 4 5 5 4 6 4 5 0 2 1 3 5 3 3 5 2 3 2 6
16 17 18 18 17 17 19 20 20 19 18 12 7 10 6 5 3 2 3 4 6 6 7 4 3 2 5 7 4 5 5 4 4 4 3 6 5 8 4 4 6 6 6 5 6 4 3
13 13 16 17 17 16 16 17 19 20 18 9 3 2 4 4 6 3 4 4 8 8 5 9 5 4 4 4 5 5 7 6 9 12 10 6 5 1 0 1 3 5 5 2 5 3 2
14 14 14 15 16 16 16 18 18 20 15 9 2 2 3 5 0 2 2 11 6 4 5 4 10 8 8 5 5 6 8 5 5 9 1 6 2 0 2 1 1 3 3 3 1 4 5
12 12 13 14 13 13 15 17 18 18 13 14 3 1 2 3 3 2 7 8 7 7 5 8 10 6 6 9 9 6 5 3 4 5 2 5 3 1 3 8 9 3 3 1 2 4 5
12 13 13 13 12 13 17 16 16 13 20 5 3 2 3 3 3 3 8 5 5 5 3 7 3 8 10 9 8 8 9 7 8 10 9 6 5 5 7 1 1 2 7 7 5 6 2
16 13 14 13 13 13 13 12 12 12 21 4 3 2 2 2 4 5 5 5 4 3 5 6 7 8 5 9 4 9 8 1 7 9 10 9 4 1 4 1 2 6 6 4 4 3 7
17 16 16 16 13 13 14 13 12 21 12 2 1 2 2 2 1 4 6 9 9 2 5 3 2 2 1 5 5 5 7 1 3 4 2 4 4 7 10 5 6 6 7 6 6 4 5
17 16 17 16 15 12 12 12 12 21 18 3 2 1 1 3 5 8 2 3 6 9 2 4 4 6 5 5 2 5 2 2 2 3 2 4 7 4 2 1 2 4 5 11 13 13 10
20 17 14 16 16 13 10 11 12 22 15 1 3 2 3 3 2 4 7 3 8 7 4 6 13 6 3 5 2 2 2 1 1 2 5 1 2 2 1 4 2 5 8 8 15 10 12
22 18 17 16 16 16 10 10 9 16 14 2 1 1 1 2 1 2 4 6 5 4 6 9 6 9 11 10 6 6 5 3 2 1 3 2 3 3 4 3 5 10 9 20 12 6 11
23 18 18 19 17 17 15 11 10 16 16 1 3 2 2 3 6 5 4 5 6 7 5 3 2 4 2 5 6 7 6 4 4 4 4 5 6 3 2 0 5 4 2 2 4 3 3
24 19 18 19 19 18 18 14 11 14 23 2 2 2 3 3 5 6 9 7 3 2 3 3 2 2 4 2 1 2 1 2 3 1 2 2 4 4 4 4 8 2 4 5 6 4 6
23 19 17 16 15 17 18 16 14 13 19 3 2 2 1 0 6 5 3 1 3 2 0 2 2 1 1 2 2 5 5 3 3 1 1 2 2 2 3 4 6 3 2 1 2 5 5
22 18 16 18 14 14 15 14 14 14 16 5 2 3 1 3 1 1 3 3 4 2 1 2 2 2 3 2 2 3 3 1 4 7 5 3 1 8 4 3 6 1 3 3 5 4 4
16 16 16 15 18 18 16 18 14 15 13 6 2 3 2 2 1 3 4 2 2 2 2 4 2 3 2 3 3 3 3 3 3 3 5 6 7 4 3 2 7 3 3 4 1 2 5
13 15 16 18 20 22 22 17 17 17 16 13 2 1 1 2 1 1 3 1 3 3 1 2 2 2 2 2 2 1 2 2 1 2 2 4 3 4 5 2 1 2 1 1 2 4 4
Wind_Direction
350 0 360 2 4 360 359 1 3 2 358 356 353 348 350 346 347 341 339 340 336 332 333 337 338 335 317 24 276 335 341 347 7 14 54 40 63 102 106 81 58 76 122 53 78 88 80
338 344 347 346 353 359 355 354 356 355 358 353 351 344 341 339 338 334 336 337 324 328 332 338 345 339 40 318 326 338 346 352 19 27 23 37 98 138 98 68 62 55 88 121 72 95 97
324 331 336 339 340 342 348 351 351 348 346 351 350 343 341 336 336 331 327 327 320 323 326 333 354 21 72 234 344 334 4 356 3 21 62 47 43 73 99 90 158 133 78 91 132 165 139
284 313 325 330 333 334 337 337 343 347 346 341 342 345 342 336 333 329 324 320 312 304 310 324 345 23 235 280 323 10 337 3 7 21 93 86 40 97 61 119 33 64 55 121 200 153 133
275 259 277 299 320 327 328 331 331 336 342 343 337 336 337 337 336 333 324 315 296 298 285 311 78 90 277 329 45 297 19 21 316 18 43 76 67 83 50 88 32 10 209 206 259 202 137
273 282 289 284 277 311 320 324 327 329 334 336 339 333 332 335 339 336 325 300 304 355 54 74 39 34 305 206 290 324 339 67 87 75 39 47 53 77 49 97 216 199 209 232 225 207 160
278 282 281 282 281 290 294 310 320 324 327 331 333 335 329 332 334 343 354 10 10 323 36 198 194 206 186 234 359 0 356 64 80 56 141 12 100 200 207 186 139 143 180 210 222 176 147
266 272 277 279 272 270 286 296 302 313 321 328 330 332 329 325 329 335 63 62 24 269 308 217 218 276 247 148 242 253 351 151 145 166 123 37 232 217 150 164 170 175 171 250 280 135 168
260 266 265 267 273 275 272 276 291 304 313 323 328 329 329 324 319 18 69 126 319 300 265 290 204 187 200 137 224 209 171 156 143 143 176 163 233 129 140 143 159 197 183 194 212 97 184
260 262 262 265 264 268 270 269 275 287 299 312 324 328 334 329 321 296 327 153 46 339 38 261 233 277 98 128 256 250 16 160 123 188 162 224 198 155 145 178 138 223 204 129 142 107 227
342 300 264 262 260 258 263 265 267 276 286 300 314 323 334 346 298 324 271 264 102 71 356 193 187 341 141 167 134 265 275 81 169 167 116 247 166 162 161 194 172 203 84 93 69 102 56
332 340 321 271 260 257 259 261 261 263 272 288 302 317 336 360 312 291 265 25 23 52 259 216 151 170 148 226 205 147 172 57 101 110 42 197 291 149 167 93 91 149 79 48 61 75 318
330 330 335 334 275 261 259 253 256 257 260 267 290 310 322 292 248 318 327 29 42 150 301 239 224 174 192 192 209 182 171 175 161 119 213 161 213 168 149 94 32 93 87 326 341 2 230
329 330 333 329 331 327 267 262 255 249 250 256 284 324 290 241 264 101 26 36 200 231 207 132 102 70 203 166 217 183 148 212 228 110 126 165 286 175 180 195 177 178 166 171 226 207 248
317 321 324 328 326 321 317 312 272 255 242 233 36 34 298 313 199 97 81 223 210 203 190 151 124 183 244 231 176 161 210 216 202 176 176 157 259 80 123 148 136 188 195 174 106 64 53
309 314 317 319 319 322 326 325 306 277 234 147 68 81 261 355 347 79 137 229 238 239 135 145 185 170 193 196 183 184 186 206 216 193 187 196 143 228 121 79 8 177 165 86 8 213 248
294 301 310 314 316 320 318 322 310 296 176 135 72 44 16 49 37 308 222 223 248 236 189 175 200 195 214 175 183 206 228 262 182 152 142 142 128 168 124 202 179 152 202 85 139 171 203
311 301 299 303 307 316 321 323 333 322 136 99 115 268 8 350 133 203 247 206 229 242 193 251 215 198 187 189 193 206 211 225 160 149 166 199 138 180 194 147 70 220 200 169 157 213 220
295 303 303 298 298 298 304 314 326 171 166 134 180 147 65 49 200 218 263 264 259 273 231 203 229 208 186 189 214 199 197 15 158 167 163 181 204 93 322 353 5 218 194 163 108 84 191
285 289 293 293 290 294 297 302 318 174 183 144 203 159 144 135 254 282 252 255 255 236 284 246 245 335 192 220 250 221 207 141 179 192 110 116 182 188 213 179 129 193 189 181 156 143 185
274 283 291 288 284 286 293 299 306 185 188 130 258 183 135 200 220 213 319 308 264 235 270 328 253 205 236 236 222 227 104 108 29 202 104 171 220 184 265 28 196 206 173 181 203 215 204
273 268 278 289 294 274 283 292 287 195 187 179 176 203 115 290 276 216 172 235 246 238 206 233 238 192 134 224 212 60 104 225 226 42 160 117 193 123 270 62 254 265 237 204 217 231 255
268 265 274 279 287 276 260 280 274 205 171 177 129 64 231 189 268 235 214 188 254 293 235 237 281 237 234 235 203 150 146 142 87 149 147 172 133 74 249 352 10 295 201 211 214 198 219
269 258 269 275 279 279 254 251 265 215 190 139 187 124 139 259 215 211 253 217 234 236 270 297 261 209 101 101 94 85 70 79 170 162 166 159 157 171 197 41 222 234 196 125 229 212 170
272 257 265 275 276 277 246 233 243 226 200 151 167 160 163 251 223 257 244 260 280 232 224 265 256 323 134 195 109 136 112 139 159 21 216 311 163 173 178 211 320 266 215 173 167 269 174
268 252 264 268 273 285 263 221 224 227 214 144 202 142 258 185 238 235 259 168 270 228 110 137 13 24 346 235 190 211 205 167 163 45 130 238 300 244 143 204 227 264 241 192 159 299 172
255 249 258 267 270 272 276 256 233 227 219 157 165 203 146 253 55 293 211 231 167 234 91 108 186 218 264 184 210 224 220 61 175 167 156 150 195 223 183 225 284 235 141 184 96 260 137
249 255 259 275 271 273 270 252 240 236 228 159 125 213 195 209 139 12 12 253 171 222 198 129 122 237 190 193 207 206 208 197 157 131 171 162 165 191 156 192 266 142 100 184 211 57 121
257 260 265 269 267 266 274 272 256 240 211 161 122 110 42 98 96 36 86 34 353 356 332 182 287 243 196 178 224 176 155 137 128 194 142 215 215 174 207 207 326 158 36 346 134 131 147